Regional Weather Roundup
Issued by NWS

Home | Current Version | Previous Version | Graphics & Text | Print | Product List | Glossary Off
Versions: 1 2 3 4 5 6 7 8 9 10 11 12 13 14 15 16 17 18 19 20 21 22 23 24 25 26 27 28 29 30 31 32 33 34 35 36 37 38 39 40 41 42 43 44 45 46 47 48 49 50

000
ASUS43 KLSX 232307
RWRMO

WEATHER SUMMARY FOR MISSOURI
NATIONAL WEATHER SERVICE SPRINGFIELD MO
600 PM CDT MON OCT 23 2017

NOTE: "FAIR" INDICATES FEW OR NO CLOUDS BELOW 12,000 FEET WITH NO
       SIGNIFICANT WEATHER AND/OR OBSTRUCTIONS TO VISIBILITY.
       CURRENT SKY AND/OR WEATHER CONDITIONS ARE NOT AVAILABLE FOR
       CHILLICOTHE AND FARMINGTON.

MOZ001>031-035>038-043-044-053-054-240000-
...NORTHERN AND WESTERN MISSOURI...

CITY           SKY/WX    TMP DP  RH WIND       PRES   REMARKS
KANSAS CTY INT PTCLDY    62  34  35 NW14      29.99R
KANSAS C DTWN  PTCLDY    65  32  29 NW23G31   29.97S
LEE`S SUMMIT   PTCLDY    62  35  36 NW16G28   29.98S
ST JOSEPH      LGT RAIN  63  31  30 NW31G43   29.98R
CHILLICOTHE      N/A     63  36  36 NW13G18   29.93S
KIRKSVILLE     CLEAR     59  41  51 NW14      29.87S

$$
MOZ066>068-077>081-088>096-101>105-240000-
...SOUTHWEST MISSOURI...

CITY           SKY/WX    TMP DP  RH WIND       PRES   REMARKS
SPRINGFIELD    CLEAR     63  43  48 NW15      29.97R
JOPLIN         PTCLDY    65  42  43 NW12      30.03R
BRANSON        PTCLDY    63  41  45 NW6G16    29.98R

$$
MOZ032>034-039>042-045>050-055>058-069>072-240000-
...CENTRAL MISSOURI...

CITY           SKY/WX    TMP DP  RH WIND       PRES   REMARKS
COLUMBIA       PTCLDY    61  41  47 NW14      29.89R
JEFFERSON CITY CLOUDY    64  38  38 NW14G22   29.89R
ROLLA          PTCLDY    61  44  53 W16       29.89S
SEDALIA        CLEAR     63  41  44 NW20G29   29.95R
WHITEMAN AFB   PTCLDY    62  38  41 NW10G18   29.92R
WARRENSBURG    PTCLDY    61  37  41 NW8       29.96S
OSAGE BEACH    PTCLDY    63  42  46 W10G22    29.94R

$$
MOZ051-052-059>065-240000-
...EAST CENTRAL MISSOURI...

CITY           SKY/WX    TMP DP  RH WIND       PRES   REMARKS
ST LOUIS INTL  MOCLDY    63  42  46 NW15G25   29.80R
SPIRIT OF STL  MOCLDY    63  42  46 NW14G21   29.80R
ST CHARLES     CLOUDY    63  42  46 NW18G24   29.79R

$$
MOZ072>076-082>087-097>100-106>115-240000-
...SOUTH CENTRAL AND SOUTHEAST MISSOURI...

CITY           SKY/WX    TMP DP  RH WIND       PRES   REMARKS
CAPE GIRARDEAU CLEAR     64  46  52 S9        29.81F
FARMINGTON     CLOUDY    67  46  47 NW16G25   29.82R
POPLAR BLUFF   CLEAR     71  42  35 SW9       29.81S
WEST PLAINS    CLEAR     64  42  44 NW12G21   29.91R

$$



USA.gov is the U.S. government's official web portal to all federal, state and local government web resources and services.